Location: Batang Balui
(2.7000°N, 113.7833°E)
Time: 08:53:22
(UTC+00:00)

FO-29 - Pass Details

Date: 02 April 2023
Orbit: 799 x 1322 km, 98.5° (Epoch: 28 May)

Event Time Altitude Azimuth Distance (km) Brightness Sun altitude
Rises 20:59:19 0° 13° (NNE) 3,950 12.9 -21.9°
Reaches altitude 10° 21:02:00 10° 13° (NNE) 2,918 12.2 -21.2°
Maximum altitude 21:08:34 88° 100° (E) 987 9.5 -19.6°
Drops below altitude 10° 21:14:21 10° 192° (SSW) 2,581 11.5 -18.2°
Sets 21:16:37 0° 192° (SSW) 3,467 12.2 -17.6°
